Regional Weather Roundup
Issued by NWS Goodland, KS

Home | Current Version | Previous Version | Graphics & Text | Print | Product List | Glossary On
Versions: 1 2 3 4 5 6 7 8 9 10 11 12 13 14 15 16 17 18 19 20 21 22 23 24 25 26 27 28 29 30 31 32 33 34 35 36 37 38 39 40 41 42 43 44 45 46 47 48 49 50
000
ASUS43 KGLD 290508
RWRGLD

GOODLAND FORECAST AREA HOURLY WEATHER ROUNDUP
NATIONAL WEATHER SERVICE GOODLAND KS
1100 PM MDT MON JUL 28 2014

...OFFICIAL OBSERVATIONS...

CITY           SKY/WX    TMP DP  RH WIND       PRES   REMARKS
GOODLAND KS    MOCLDY    68  58  70 S10       30.25F
HILL CITY KS   MOCLDY    72  57  59 E12       30.22R
IMPERIAL NEB   CLOUDY    68  58  70 SE12      30.23F
MCCOOK NEB     MOCLDY    68  59  73 E9        30.23S
AKRON CO       CLOUDY    72  55  55 S12       30.26F
BURLINGTON CO  MOCLDY    67  58  72 S9        30.28S
LIMON CO       MOCLDY    63  54  72 SE6       30.33S
$$

...UNOFFICIAL OBSERVATIONS...

CITY           SKY/WX    TMP DP  RH WIND       PRES   REMARKS
COLBY KS       CLEAR     70  61  73 S7        30.25S
NORTON KS      CLEAR     68  54  60 E9        30.22S
OBERLIN KS     FAIR      70  55  60 E12       30.22S
ST FRANCIS KS  CLOUDY    70  52  52 S9        30.23F
TRIBUNE KS     CLOUDY    64  50  59 S6        30.28S
TRENTON NEB      N/A     68  32  26 E12         N/A
KIT CARSON CO    N/A     69  59  69 N5          N/A
YUMA CO          N/A     70  56  60 S5G12       N/A
$$



USA.gov is the U.S. government's official web portal to all federal, state and local government web resources and services.